Time,TemperatureF,DewpointF,PressureIn,WindDirection,WindDirectionDegrees,WindSpeedMPH,WindSpeedGustMPH,Humidity,HourlyPrecipIn,Conditions,Clouds,dailyrainin,SoftwareType,DateUTC
2013-02-10 00:02:00,25.0,21.0,29.03,NNE,15,0.0,-999.0,86,-99.99,,,-99.99,,2013-02-10 09:02:00,
2013-02-10 00:11:00,25.0,21.0,29.03,NNE,15,0.0,-999.0,86,-99.99,,,-99.99,,2013-02-10 09:11:00,
2013-02-10 00:21:00,23.0,21.0,29.03,NNE,15,0.0,-999.0,92,-99.99,,,-99.99,,2013-02-10 09:21:00,
2013-02-10 00:31:00,23.0,21.0,29.02,NNE,15,0.0,-999.0,91,-99.99,,,-99.99,,2013-02-10 09:31:00,
2013-02-10 00:41:00,23.0,21.0,29.02,NNE,15,0.0,-999.0,91,-99.99,,,-99.99,,2013-02-10 09:41:00,
2013-02-10 00:51:00,24.0,22.0,29.01,East,91,0.0,-999.0,92,-99.99,,,-99.99,,2013-02-10 09:51:00,
2013-02-10 01:01:00,22.0,20.0,29.01,East,91,0.0,-999.0,91,-99.99,,,-99.99,,2013-02-10 10:01:00,
2013-02-10 01:11:00,22.0,20.0,29.01,East,91,0.0,-999.0,91,-99.99,,,-99.99,,2013-02-10 10:11:00,
2013-02-10 01:21:00,22.0,21.0,29.00,East,91,0.0,-999.0,94,-99.99,,,-99.99,,2013-02-10 10:21:00,
2013-02-10 01:31:00,22.0,21.0,28.99,East,91,0.0,-999.0,95,-99.99,,,-99.99,,2013-02-10 10:31:00,
2013-02-10 01:41:00,22.0,21.0,28.99,East,91,0.0,-999.0,95,-99.99,,,-99.99,,2013-02-10 10:41:00,
2013-02-10 01:51:00,23.0,22.0,28.99,East,91,0.0,-999.0,96,-99.99,,,-99.99,,2013-02-10 10:51:00,
2013-02-10 02:01:00,23.0,22.0,28.99,East,91,0.0,-999.0,94,-99.99,,,-99.99,,2013-02-10 11:01:00,
2013-02-10 02:11:00,23.0,22.0,28.99,East,91,0.0,-999.0,94,-99.99,,,-99.99,,2013-02-10 11:11:00,
2013-02-10 02:21:00,22.0,21.0,28.99,East,91,0.0,-999.0,94,-99.99,,,-99.99,,2013-02-10 11:21:00,
2013-02-10 02:31:00,21.0,20.0,28.99,East,91,0.0,-999.0,94,-99.99,,,-99.99,,2013-02-10 11:31:00,
2013-02-10 02:42:00,21.0,20.0,28.99,East,91,0.0,-999.0,94,-99.99,,,-99.99,,2013-02-10 11:42:00,
2013-02-10 02:52:00,21.0,20.0,28.99,East,91,0.0,-999.0,95,-99.99,,,-99.99,,2013-02-10 11:52:00,
2013-02-10 03:01:00,21.0,20.0,28.98,East,91,0.0,-999.0,95,-99.99,,,-99.99,,2013-02-10 12:01:00,
2013-02-10 03:12:00,21.0,20.0,28.98,East,91,0.0,-999.0,95,-99.99,,,-99.99,,2013-02-10 12:12:00,
2013-02-10 03:21:00,20.0,19.0,28.98,East,91,0.0,-999.0,94,-99.99,,,-99.99,,2013-02-10 12:21:00,
2013-02-10 03:32:00,19.0,18.0,28.98,East,91,0.0,-999.0,94,-99.99,,,-99.99,,2013-02-10 12:32:00,
2013-02-10 03:41:00,19.0,18.0,28.98,East,91,0.0,-999.0,94,-99.99,,,-99.99,,2013-02-10 12:41:00,
2013-02-10 03:52:00,20.0,19.0,28.97,East,94,0.0,-999.0,95,-99.99,,,-99.99,,2013-02-10 12:52:00,
2013-02-10 04:02:00,20.0,19.0,28.97,East,94,0.0,-999.0,95,-99.99,,,-99.99,,2013-02-10 13:02:00,
2013-02-10 04:11:00,20.0,19.0,28.97,East,94,0.0,-999.0,95,-99.99,,,-99.99,,2013-02-10 13:11:00,
2013-02-10 04:21:00,20.0,19.0,28.97,East,94,0.0,-999.0,95,-99.99,,,-99.99,,2013-02-10 13:21:00,
2013-02-10 04:31:00,19.0,18.0,28.96,East,94,0.0,-999.0,95,-99.99,,,-99.99,,2013-02-10 13:31:00,
2013-02-10 04:41:00,19.0,18.0,28.96,East,94,0.0,-999.0,95,-99.99,,,-99.99,,2013-02-10 13:41:00,
2013-02-10 04:51:00,19.0,18.0,28.95,East,95,0.0,-999.0,95,-99.99,,,-99.99,,2013-02-10 13:51:00,
2013-02-10 05:01:00,20.0,19.0,28.95,East,95,0.0,-999.0,95,-99.99,,,-99.99,,2013-02-10 14:01:00,
2013-02-10 05:11:00,20.0,19.0,28.95,East,95,0.0,-999.0,95,-99.99,,,-99.99,,2013-02-10 14:11:00,
2013-02-10 05:21:00,20.0,19.0,28.95,East,95,0.0,-999.0,95,-99.99,,,-99.99,,2013-02-10 14:21:00,
2013-02-10 05:31:00,20.0,19.0,28.95,East,95,0.0,-999.0,95,-99.99,,,-99.99,,2013-02-10 14:31:00,
2013-02-10 05:41:00,20.0,19.0,28.95,East,95,0.0,-999.0,95,-99.99,,,-99.99,,2013-02-10 14:41:00,
2013-02-10 05:52:00,20.0,19.0,28.95,East,95,1.0,-999.0,96,-99.99,,,-99.99,,2013-02-10 14:52:00,
2013-02-10 06:01:00,20.0,19.0,28.94,East,95,1.0,-999.0,96,-99.99,,,-99.99,,2013-02-10 15:01:00,
2013-02-10 06:11:00,20.0,19.0,28.94,East,95,1.0,-999.0,96,-99.99,,,-99.99,,2013-02-10 15:11:00,
2013-02-10 06:21:00,20.0,19.0,28.94,East,95,0.0,-999.0,95,-99.99,,,-99.99,,2013-02-10 15:21:00,
2013-02-10 06:31:00,20.0,19.0,28.94,East,95,0.0,-999.0,95,-99.99,,,-99.99,,2013-02-10 15:31:00,
2013-02-10 06:41:00,20.0,19.0,28.94,East,95,0.0,-999.0,95,-99.99,,,-99.99,,2013-02-10 15:41:00,
2013-02-10 06:51:00,20.0,19.0,28.94,East,95,0.0,-999.0,95,-99.99,,,-99.99,,2013-02-10 15:51:00,
2013-02-10 07:01:00,21.0,20.0,28.94,East,95,0.0,-999.0,95,-99.99,,,-99.99,,2013-02-10 16:01:00,
2013-02-10 07:11:00,20.0,19.0,28.94,East,95,0.0,-999.0,95,-99.99,,,-99.99,,2013-02-10 16:11:00,
2013-02-10 07:21:00,20.0,19.0,28.94,East,95,0.0,-999.0,95,-99.99,,,-99.99,,2013-02-10 16:21:00,
2013-02-10 07:32:00,20.0,19.0,28.94,East,95,0.0,-999.0,95,-99.99,,,-99.99,,2013-02-10 16:32:00,
2013-02-10 07:42:00,22.0,21.0,28.95,East,95,0.0,-999.0,96,-99.99,,,-99.99,,2013-02-10 16:42:00,
2013-02-10 07:51:00,22.0,21.0,28.95,East,95,0.0,-999.0,96,-99.99,,,-99.99,,2013-02-10 16:51:00,
2013-02-10 08:01:00,22.0,21.0,28.95,East,95,0.0,-999.0,96,-99.99,,,-99.99,,2013-02-10 17:01:00,
2013-02-10 08:11:00,22.0,21.0,28.95,East,95,0.0,-999.0,96,-99.99,,,-99.99,,2013-02-10 17:11:00,
2013-02-10 08:21:00,22.0,21.0,28.95,ESE,108,0.0,-999.0,96,-99.99,,,-99.99,,2013-02-10 17:21:00,
2013-02-10 08:32:00,23.0,22.0,28.95,ESE,109,0.0,-999.0,96,-99.99,,,-99.99,,2013-02-10 17:32:00,
2013-02-10 08:42:00,23.0,22.0,28.95,ESE,109,0.0,-999.0,95,-99.99,,,-99.99,,2013-02-10 17:42:00,
2013-02-10 08:52:00,23.0,22.0,28.95,ESE,109,0.0,-999.0,95,-99.99,,,-99.99,,2013-02-10 17:52:00,
2013-02-10 09:01:00,23.0,22.0,28.96,SSE,148,0.0,-999.0,95,-99.99,,,-99.99,,2013-02-10 18:01:00,
2013-02-10 09:11:00,23.0,22.0,28.97,SSE,148,0.0,-999.0,95,-99.99,,,-99.99,,2013-02-10 18:11:00,
2013-02-10 09:21:00,23.0,22.0,28.97,SSE,148,0.0,-999.0,95,-99.99,,,-99.99,,2013-02-10 18:21:00,
2013-02-10 09:31:00,23.0,22.0,28.97,South,176,0.0,-999.0,95,-99.99,,,-99.99,,2013-02-10 18:31:00,
2013-02-10 09:41:00,23.0,22.0,28.97,South,176,0.0,-999.0,95,-99.99,,,-99.99,,2013-02-10 18:41:00,
2013-02-10 09:51:00,23.0,22.0,28.97,South,186,0.0,-999.0,95,-99.99,,,-99.99,,2013-02-10 18:51:00,
2013-02-10 10:01:00,24.0,23.0,28.97,South,186,0.0,-999.0,95,-99.99,,,-99.99,,2013-02-10 19:01:00,
2013-02-10 10:11:00,24.0,23.0,28.98,South,186,0.0,-999.0,96,-99.99,,,-99.99,,2013-02-10 19:11:00,
2013-02-10 10:21:00,24.0,23.0,28.98,South,186,0.0,-999.0,96,-99.99,,,-99.99,,2013-02-10 19:21:00,
2013-02-10 10:32:00,24.0,23.0,28.98,South,186,0.0,-999.0,95,-99.99,,,-99.99,,2013-02-10 19:32:00,
2013-02-10 10:42:00,24.0,23.0,28.99,South,186,0.0,-999.0,95,-99.99,,,-99.99,,2013-02-10 19:42:00,
2013-02-10 10:51:00,24.0,23.0,28.99,South,186,0.0,-999.0,95,-99.99,,,-99.99,,2013-02-10 19:51:00,
2013-02-10 11:01:00,25.0,24.0,28.99,South,186,0.0,-999.0,95,-99.99,,,-99.99,,2013-02-10 20:01:00,
2013-02-10 11:11:00,25.0,24.0,28.99,South,186,0.0,-999.0,95,-99.99,,,-99.99,,2013-02-10 20:11:00,
2013-02-10 11:21:00,25.0,24.0,29.00,South,186,0.0,-999.0,95,-99.99,,,-99.99,,2013-02-10 20:21:00,
2013-02-10 11:32:00,25.0,24.0,29.00,South,186,0.0,-999.0,95,-99.99,,,-99.99,,2013-02-10 20:32:00,
2013-02-10 11:42:00,25.0,24.0,29.00,South,186,0.0,-999.0,95,-99.99,,,-99.99,,2013-02-10 20:42:00,
2013-02-10 11:52:00,25.0,24.0,29.00,South,186,0.0,-999.0,95,-99.99,,,-99.99,,2013-02-10 20:52:00,
2013-02-10 12:02:00,26.0,25.0,29.01,South,186,0.0,-999.0,95,-99.99,,,-99.99,,2013-02-10 21:02:00,
2013-02-10 12:11:00,26.0,25.0,29.01,South,186,0.0,-999.0,95,-99.99,,,-99.99,,2013-02-10 21:11:00,
2013-02-10 12:21:00,26.0,25.0,29.02,South,186,0.0,-999.0,94,-99.99,,,-99.99,,2013-02-10 21:21:00,
2013-02-10 12:32:00,26.0,25.0,29.03,South,186,0.0,-999.0,94,-99.99,,,-99.99,,2013-02-10 21:32:00,
2013-02-10 12:42:00,26.0,25.0,29.03,South,186,0.0,-999.0,94,-99.99,,,-99.99,,2013-02-10 21:42:00,
2013-02-10 12:51:00,26.0,25.0,29.03,South,186,0.0,-999.0,94,-99.99,,,-99.99,,2013-02-10 21:51:00,
2013-02-10 13:01:00,26.0,24.0,29.04,SE,130,0.0,-999.0,92,-99.99,,,-99.99,,2013-02-10 22:01:00,
2013-02-10 13:11:00,24.0,21.0,29.05,SE,130,1.0,-999.0,89,-99.99,,,-99.99,,2013-02-10 22:11:00,
2013-02-10 13:21:00,24.0,21.0,29.05,SE,130,1.0,-999.0,89,-99.99,,,-99.99,,2013-02-10 22:21:00,
2013-02-10 13:31:00,23.0,20.0,29.05,SE,130,0.0,-999.0,87,-99.99,,,-99.99,,2013-02-10 22:31:00,
2013-02-10 13:42:00,21.0,18.0,29.07,ESE,106,0.0,-999.0,88,-99.99,,,-99.99,,2013-02-10 22:42:00,
2013-02-10 13:52:00,21.0,18.0,29.07,ESE,106,0.0,-999.0,88,-99.99,,,-99.99,,2013-02-10 22:52:00,
2013-02-10 14:01:00,21.0,18.0,29.08,ESE,110,0.0,-999.0,89,-99.99,,,-99.99,,2013-02-10 23:01:00,
2013-02-10 14:11:00,21.0,18.0,29.08,ESE,110,0.0,-999.0,89,-99.99,,,-99.99,,2013-02-10 23:11:00,
2013-02-10 14:21:00,19.0,16.0,29.09,ESE,118,0.0,-999.0,86,-99.99,,,-99.99,,2013-02-10 23:21:00,
2013-02-10 14:31:00,17.0,14.0,29.10,ESE,104,2.0,-999.0,88,-99.99,,,-99.99,,2013-02-10 23:31:00,
2013-02-10 14:41:00,16.0,13.0,29.12,East,91,4.0,-999.0,88,-99.99,,,-99.99,,2013-02-10 23:41:00,
2013-02-10 14:52:00,16.0,13.0,29.12,East,91,4.0,-999.0,88,-99.99,,,-99.99,,2013-02-10 23:52:00,
2013-02-10 15:01:00,15.0,12.0,29.13,ESE,105,3.0,-999.0,88,-99.99,,,-99.99,,2013-02-11 00:01:00,
2013-02-10 15:21:00,15.0,12.0,29.14,ESE,112,2.0,-999.0,88,-99.99,,,-99.99,,2013-02-11 00:21:00,
2013-02-10 15:31:00,13.0,10.0,29.15,ENE,67,3.0,-999.0,88,-99.99,,,-99.99,,2013-02-11 00:31:00,
2013-02-10 15:41:00,13.0,10.0,29.15,ENE,67,3.0,-999.0,88,-99.99,,,-99.99,,2013-02-11 00:41:00,
2013-02-10 15:51:00,13.0,10.0,29.17,East,91,1.0,-999.0,88,-99.99,,,-99.99,,2013-02-11 00:51:00,
2013-02-10 16:01:00,12.0,9.0,29.19,East,90,0.0,-999.0,87,-99.99,,,-99.99,,2013-02-11 01:01:00,
2013-02-10 16:11:00,12.0,9.0,29.19,East,90,0.0,-999.0,87,-99.99,,,-99.99,,2013-02-11 01:11:00,
2013-02-10 16:21:00,12.0,9.0,29.19,NE,46,0.0,-999.0,89,-99.99,,,-99.99,,2013-02-11 01:21:00,
2013-02-10 16:32:00,12.0,9.0,29.21,ESE,109,2.0,-999.0,88,-99.99,,,-99.99,,2013-02-11 01:32:00,
2013-02-10 16:41:00,12.0,9.0,29.21,ESE,109,2.0,-999.0,88,-99.99,,,-99.99,,2013-02-11 01:41:00,
2013-02-10 16:52:00,12.0,9.0,29.23,East,91,2.0,-999.0,88,-99.99,,,-99.99,,2013-02-11 01:52:00,
2013-02-10 17:01:00,12.0,9.0,29.24,NNE,14,0.0,-999.0,89,-99.99,,,-99.99,,2013-02-11 02:01:00,
2013-02-10 17:11:00,12.0,9.0,29.24,NNE,14,0.0,-999.0,89,-99.99,,,-99.99,,2013-02-11 02:11:00,
2013-02-10 17:21:00,12.0,10.0,29.26,East,96,0.0,-999.0,90,-99.99,,,-99.99,,2013-02-11 02:21:00,
2013-02-10 17:31:00,12.0,9.0,29.26,NNE,30,0.0,-999.0,89,-99.99,,,-99.99,,2013-02-11 02:31:00,
2013-02-10 17:41:00,12.0,9.0,29.28,NNE,25,0.0,-999.0,89,-99.99,,,-99.99,,2013-02-11 02:41:00,
2013-02-10 17:52:00,12.0,9.0,29.28,NNE,25,0.0,-999.0,89,-99.99,,,-99.99,,2013-02-11 02:52:00,
2013-02-10 18:01:00,11.0,9.0,29.29,NNE,26,0.0,-999.0,90,-99.99,,,-99.99,,2013-02-11 03:01:00,
2013-02-10 18:11:00,11.0,9.0,29.29,NNE,26,0.0,-999.0,90,-99.99,,,-99.99,,2013-02-11 03:11:00,
2013-02-10 18:21:00,11.0,9.0,29.30,NW,326,0.0,-999.0,90,-99.99,,,-99.99,,2013-02-11 03:21:00,
2013-02-10 18:31:00,11.0,9.0,29.32,WNW,290,0.0,-999.0,91,-99.99,,,-99.99,,2013-02-11 03:31:00,
2013-02-10 18:41:00,11.0,9.0,29.33,NNW,329,0.0,-999.0,90,-99.99,,,-99.99,,2013-02-11 03:41:00,
2013-02-10 18:51:00,11.0,9.0,29.33,NNW,329,0.0,-999.0,90,-99.99,,,-99.99,,2013-02-11 03:51:00,
2013-02-10 19:01:00,12.0,10.0,29.34,NNW,329,0.0,-999.0,90,-99.99,,,-99.99,,2013-02-11 04:01:00,
2013-02-10 19:11:00,12.0,10.0,29.34,NNW,329,0.0,-999.0,90,-99.99,,,-99.99,,2013-02-11 04:11:00,
2013-02-10 19:21:00,12.0,10.0,29.34,NW,317,0.0,-999.0,90,-99.99,,,-99.99,,2013-02-11 04:21:00,
2013-02-10 19:31:00,12.0,9.0,29.35,North,5,0.0,-999.0,89,-99.99,,,-99.99,,2013-02-11 04:31:00,
2013-02-10 19:41:00,12.0,9.0,29.35,North,5,0.0,-999.0,89,-99.99,,,-99.99,,2013-02-11 04:41:00,
2013-02-10 19:51:00,12.0,9.0,29.36,North,5,0.0,-999.0,89,-99.99,,,-99.99,,2013-02-11 04:51:00,
2013-02-10 20:01:00,12.0,9.0,29.36,North,5,0.0,-999.0,89,-99.99,,,-99.99,,2013-02-11 05:01:00,
2013-02-10 20:11:00,12.0,9.0,29.36,North,5,0.0,-999.0,89,-99.99,,,-99.99,,2013-02-11 05:11:00,
2013-02-10 20:22:00,12.0,10.0,29.37,North,360,0.0,-999.0,90,-99.99,,,-99.99,,2013-02-11 05:22:00,
2013-02-10 20:31:00,11.0,9.0,29.38,North,5,0.0,-999.0,90,-99.99,,,-99.99,,2013-02-11 05:31:00,
2013-02-10 20:41:00,11.0,9.0,29.38,North,5,0.0,-999.0,90,-99.99,,,-99.99,,2013-02-11 05:41:00,
2013-02-10 20:52:00,11.0,9.0,29.38,North,360,0.0,-999.0,90,-99.99,,,-99.99,,2013-02-11 05:52:00,
2013-02-10 21:01:00,10.0,8.0,29.39,North,360,0.0,-999.0,91,-99.99,,,-99.99,,2013-02-11 06:01:00,
2013-02-10 21:11:00,10.0,8.0,29.39,North,360,0.0,-999.0,91,-99.99,,,-99.99,,2013-02-11 06:11:00,
2013-02-10 21:21:00,10.0,8.0,29.40,North,5,0.0,-999.0,91,-99.99,,,-99.99,,2013-02-11 06:21:00,
2013-02-10 21:31:00,10.0,8.0,29.41,North,360,0.0,-999.0,91,-99.99,,,-99.99,,2013-02-11 06:31:00,
2013-02-10 21:41:00,10.0,8.0,29.41,North,360,0.0,-999.0,91,-99.99,,,-99.99,,2013-02-11 06:41:00,
2013-02-10 21:51:00,10.0,8.0,29.41,North,5,0.0,-999.0,90,-99.99,,,-99.99,,2013-02-11 06:51:00,
2013-02-10 22:01:00,11.0,9.0,29.43,North,5,0.0,-999.0,91,-99.99,,,-99.99,,2013-02-11 07:01:00,
2013-02-10 22:11:00,11.0,9.0,29.43,North,5,0.0,-999.0,91,-99.99,,,-99.99,,2013-02-11 07:11:00,
2013-02-10 22:21:00,11.0,9.0,29.43,NNE,16,0.0,-999.0,90,-99.99,,,-99.99,,2013-02-11 07:21:00,
2013-02-10 22:32:00,10.0,8.0,29.43,NNE,16,0.0,-999.0,90,-99.99,,,-99.99,,2013-02-11 07:32:00,
2013-02-10 22:41:00,10.0,8.0,29.43,NNE,16,0.0,-999.0,90,-99.99,,,-99.99,,2013-02-11 07:41:00,
2013-02-10 22:51:00,9.0,6.0,29.44,NNE,16,0.0,-999.0,89,-99.99,,,-99.99,,2013-02-11 07:51:00,
2013-02-10 23:01:00,9.0,7.0,29.44,NNE,16,0.0,-999.0,90,-99.99,,,-99.99,,2013-02-11 08:01:00,
2013-02-10 23:11:00,9.0,7.0,29.44,NNE,16,0.0,-999.0,90,-99.99,,,-99.99,,2013-02-11 08:11:00,
2013-02-10 23:21:00,9.0,7.0,29.45,NNE,16,0.0,-999.0,91,-99.99,,,-99.99,,2013-02-11 08:21:00,
2013-02-10 23:31:00,9.0,7.0,29.47,NNE,16,0.0,-999.0,91,-99.99,,,-99.99,,2013-02-11 08:31:00,
2013-02-10 23:42:00,9.0,7.0,29.47,NNE,16,0.0,-999.0,92,-99.99,,,-99.99,,2013-02-11 08:42:00,
2013-02-10 23:52:00,9.0,7.0,29.47,NNE,16,0.0,-999.0,92,-99.99,,,-99.99,,2013-02-11 08:52:00,